Location: Oak Glen
(34.0495°N, 116.9470°E)
Time: 17:26:15
(UTC-07:00)

Envisat - Pass Details

Date: 13 October 2017
Orbit: 764 x 766 km, 98.2° (Epoch: 23 October)

Event Time Altitude Azimuth Distance (km) Brightness Sun altitude
Exits shadow 06:15:28 10° 311° (NW) 2,276 6.0 -44.4°
Drops below altitude 10° 06:15:36 10° 312° (NW) 2,309 6.0 -44.4°
Sets 06:18:30 0° 329° (NNW) 3,232 6.8 -44.9°
